Theta_e
319 322 321 321 322 322 321 323 324 323 323 324 324 324 324 324 322 319 316 317 318 318 318 319 322 324 326 325 326 325 325 325 326 327 326 324 323 322 321 320 320 319 320 320
320 321 320 318 318 322 324 323 323 322 323 323 323 324 323 323 323 323 323 320 317 318 320 320 317 319 322 324 324 324 324 325 325 325 325 325 324 323 323 322 321 320 321 321
320 319 318 320 321 322 322 324 323 323 322 323 325 326 324 323 323 323 323 323 323 321 323 324 322 320 317 319 320 323 323 323 324 326 327 327 327 326 325 324 323 322 322 322
320 317 318 320 321 321 322 320 322 323 324 327 324 328 323 322 323 321 323 322 321 322 324 325 323 323 324 321 318 319 321 322 323 325 327 327 325 324 321 322 322 322 323 323
318 319 318 320 319 321 323 322 323 323 325 323 323 325 323 321 322 321 321 322 321 323 324 325 326 325 326 324 321 319 319 320 322 324 324 326 327 325 325 324 321 321 322 323
314 316 318 319 319 319 320 321 322 322 324 325 323 324 323 324 320 319 320 322 323 323 325 326 328 327 327 326 325 320 318 318 318 321 323 324 323 325 325 324 323 322 322 322
317 316 317 317 318 319 321 322 323 323 323 325 318 322 322 321 314 314 316 318 320 321 322 322 322 322 324 326 326 325 319 317 317 319 321 323 324 325 325 324 323 322 321 320
318 318 317 317 318 320 321 321 324 324 323 322 316 324 322 318 318 320 319 319 320 322 323 320 319 319 320 322 325 324 325 324 318 318 318 321 323 325 326 326 325 323 321 319
319 318 316 316 317 318 321 323 319 318 309 316 316 312 313 312 312 311 312 314 319 322 320 322 321 318 319 319 320 323 324 325 322 320 318 319 322 324 324 324 325 324 322 321
317 320 317 316 316 317 319 317 320 317 322 319 316 314 318 314 315 313 315 313 316 317 318 317 320 318 317 319 319 320 320 322 323 322 321 319 320 322 323 323 324 324 323 322
314 317 316 316 318 319 318 320 320 319 318 318 317 316 309 314 314 312 310 312 313 313 314 315 316 320 319 316 316 319 320 320 320 320 320 320 320 323 323 323 324 324 324 324
316 313 317 317 313 316 318 318 319 321 318 313 311 317 311 307 307 307 307 309 310 309 311 314 314 316 318 317 315 315 317 318 319 319 319 319 320 322 324 324 324 324 324 324
315 312 316 316 314 313 318 319 318 318 314 317 318 318 312 307 305 307 305 308 309 310 310 312 313 313 314 314 314 313 314 314 315 316 317 318 319 321 322 323 324 324 323 323
314 313 315 316 315 315 318 318 318 319 321 319 318 318 315 313 310 311 312 313 308 309 309 310 311 311 312 312 312 313 313 314 314 315 316 317 318 319 321 322 323 323 322 323
314 313 314 314 311 311 313 317 318 319 319 320 319 318 316 315 313 315 312 314 311 309 309 309 308 309 310 310 311 311 312 314 314 314 314 315 316 317 319 320 321 321 321 323
309 311 309 312 313 313 313 311 315 317 319 319 319 319 316 316 316 315 314 310 313 314 314 310 309 308 309 309 310 310 310 310 311 311 310 311 311 311 311 311 311 310 310 309
309 309 311 312 310 311 314 313 312 314 316 317 320 318 316 316 315 315 315 315 313 313 315 310 309 309 309 309 310 310 309 309 309 309 309 309 309 309 309 309 309 309 308 308
306 307 310 310 307 313 309 308 311 312 313 315 316 316 316 315 316 316 315 315 316 316 314 314 309 309 309 309 309 309 309 309 309 309 309 309 309 309 309 309 309 309 309 309
306 306 306 302 306 304 309 307 310 311 312 311 315 316 315 315 314 314 315 314 315 315 316 315 311 309 309 309 309 309 309 309 309 309 309 309 309 309 309 309 309 309 309 309
304 306 302 301 308 300 304 306 307 308 312 310 311 312 312 312 313 314 314 314 314 314 315 315 315 309 309 309 309 309 309 309 309 310 310 309 309 309 309 309 309 309 309 309
302 306 308 307 306 300 301 306 309 309 309 307 310 311 311 311 313 313 314 314 314 314 314 314 314 311 310 310 309 308 309 309 309 310 311 310 310 309 309 308 308 309 310 310
299 299 298 304 302 300 303 304 309 304 302 304 304 303 303 307 311 312 313 313 313 313 313 313 313 312 310 309 309 309 309 309 310 310 310 309 308 308 307 307 307 308 308 309
302 302 300 301 301 301 305 303 300 297 298 299 299 301 302 303 306 306 309 310 310 311 312 312 310 310 310 309 308 309 309 308 309 308 308 307 307 306 306 306 305 306 306 305
302 302 302 306 305 301 300 299 298 296 295 297 299 299 300 302 304 305 305 306 307 308 309 308 307 307 306 306 307 307 307 307 306 306 306 305 305 304 303 303 303 303 303 303
299 300 299 301 300 300 298 298 296 296 295 297 299 299 297 300 304 302 302 303 305 304 305 305 303 304 304 304 304 304 304 304 304 304 303 303 302 302 302 302 302 301 301 301
294 299 301 301 289 292 295 294 292 293 293 293 292 299 299 296 301 300 300 299 301 301 301 301 301 300 302 302 302 302 303 303 303 302 303 303 303 302 301 300 300 299 299 300
Wind_Speed
11 7 17 21 12 6 12 8 12 3 6 3 11 14 17 20 20 25 28 33 35 34 41 37 38 38 40 39 40 39 38 39 37 38 39 38 39 36 34 33 31 30 29 27
6 21 12 6 11 15 15 6 7 2 4 5 10 16 16 17 18 28 30 29 37 43 38 41 40 40 42 41 41 42 42 41 40 40 40 40 39 39 37 36 34 33 33 31
9 3 20 10 11 17 21 20 9 7 1 5 9 20 13 15 28 34 36 37 42 43 47 45 37 41 42 43 45 46 44 43 43 43 41 41 41 41 41 42 40 38 36 35
11 22 11 17 17 14 20 14 10 9 1 9 3 13 8 7 15 17 33 36 41 46 50 49 45 44 43 48 46 46 45 45 45 45 46 47 46 46 44 44 43 41 39 37
6 5 22 16 17 11 8 5 12 10 8 1 8 7 4 6 12 12 21 33 38 50 50 51 46 48 48 46 46 48 47 46 46 45 47 49 47 46 44 42 40 41 40 39
9 4 8 7 9 15 1 1 3 3 4 9 15 8 14 11 14 8 17 26 35 40 45 49 50 52 53 50 48 45 48 47 47 46 44 48 46 47 46 44 41 39 37 38
11 17 2 9 12 11 15 6 3 3 5 12 9 11 22 15 6 9 11 23 26 29 34 38 39 43 45 49 49 48 45 47 46 47 45 45 45 46 45 42 39 37 37 39
13 10 16 6 16 13 17 14 4 5 7 4 2 12 6 11 19 27 31 31 28 29 30 25 24 34 35 43 49 50 49 48 46 46 47 46 44 44 43 42 38 37 37 36
11 11 9 9 4 7 5 13 5 4 2 0 4 9 8 12 11 15 26 25 36 35 31 31 29 25 30 33 39 48 47 46 46 44 43 46 45 43 42 40 38 37 36 35
2 5 9 9 10 11 7 9 4 3 3 4 7 6 12 12 12 10 15 20 23 28 31 28 30 24 19 26 29 34 44 46 43 43 42 43 44 43 40 39 38 37 35 33
7 3 2 5 13 17 6 5 5 3 3 4 7 8 7 14 14 9 8 19 16 23 22 28 28 31 26 19 25 29 34 42 44 43 42 40 42 43 41 40 37 35 34 34
6 2 6 18 3 17 17 14 13 6 9 4 3 21 2 9 7 7 18 25 19 19 20 17 19 22 29 26 21 24 30 34 37 37 38 39 39 41 41 39 37 34 33 32
9 4 2 2 2 2 9 16 16 17 2 14 7 20 6 6 7 10 14 24 22 16 15 12 16 20 24 26 24 23 22 26 31 31 32 33 35 36 37 36 34 34 33 32
16 5 5 6 2 4 9 15 14 16 8 18 14 33 20 12 6 11 17 20 20 18 17 15 13 16 21 24 23 23 22 23 25 26 26 27 28 28 29 31 33 34 34 33
6 4 7 11 3 3 1 16 19 19 20 11 31 30 23 18 13 22 19 26 22 22 22 20 19 20 20 21 21 21 20 19 22 24 25 26 25 26 28 30 32 32 33 33
4 2 2 2 4 10 7 9 17 25 25 23 30 29 27 19 25 30 29 18 28 30 31 24 22 20 18 18 19 18 18 18 19 19 19 19 21 22 24 25 27 29 31 31
6 5 2 3 5 4 5 20 17 17 23 25 24 39 36 19 19 29 36 39 28 29 31 26 22 17 13 12 14 16 16 18 18 17 18 18 19 19 20 21 22 22 22 22
4 4 2 2 2 5 6 4 18 24 22 25 27 32 26 23 30 33 36 35 36 36 27 26 22 15 10 10 12 15 16 16 15 14 14 14 14 15 16 16 16 16 17 18
4 4 2 3 4 8 16 4 7 10 18 23 28 32 31 33 29 44 42 35 36 38 40 26 20 19 13 13 15 17 17 16 14 11 10 10 12 13 14 14 14 16 16 16
4 4 3 2 3 8 5 5 5 7 15 11 23 28 24 10 9 23 41 39 40 40 37 36 27 25 22 21 21 20 18 16 14 13 13 13 14 16 17 18 19 20 19 19
5 5 13 11 5 9 7 4 15 5 7 10 1 18 20 10 23 44 38 27 33 36 37 38 33 33 26 24 25 24 22 20 18 17 19 21 23 24 23 22 22 22 22 22
8 8 5 8 4 13 9 3 11 5 21 20 25 20 18 22 36 42 44 35 33 36 32 33 33 34 33 27 27 26 26 25 24 24 26 27 26 24 22 21 21 21 20 20
4 7 5 10 8 5 4 2 5 15 14 16 25 29 28 28 28 29 35 39 35 32 29 28 27 29 30 28 29 29 28 26 27 28 27 25 24 22 21 20 19 19 19 18
3 3 3 0 2 2 7 6 10 17 20 22 19 24 24 27 28 26 25 20 20 21 21 22 22 24 24 23 24 25 25 26 25 24 23 22 20 18 17 16 16 16 15 13
4 5 5 7 1 3 8 7 18 26 23 23 22 21 22 25 26 24 18 12 11 14 16 18 19 21 21 20 20 20 20 21 21 20 18 16 14 13 14 13 12 10 9 8
5 4 4 5 3 3 10 11 24 26 26 25 28 28 21 21 21 20 16 12 10 11 12 13 15 15 16 15 15 15 15 15 15 15 13 12 12 12 11 11 11 10 6 6
Wind_Direction
182 197 217 210 219 243 265 214 232 181 207 175 247 250 257 249 248 252 259 263 262 261 255 252 246 243 244 243 241 239 236 234 233 233 233 235 236 235 235 236 236 236 238 239
197 226 223 202 215 237 262 248 233 286 185 208 267 262 250 249 246 239 250 253 260 260 262 253 250 249 245 245 245 242 240 237 236 236 237 237 239 239 240 241 240 239 238 239
221 281 209 211 217 220 234 251 247 249 305 235 289 280 245 252 246 245 248 247 252 253 258 258 253 250 249 246 243 243 243 240 239 239 238 239 241 243 242 240 240 239 240 242
238 232 190 210 229 220 240 226 249 246 180 271 152 286 250 265 242 222 239 236 238 244 250 255 252 251 250 248 247 245 245 243 242 239 240 239 240 240 241 242 242 242 241 243
205 227 206 217 216 213 227 192 206 202 201 300 245 275 265 206 256 241 242 238 233 242 243 249 251 247 248 251 249 245 244 244 244 242 241 242 242 246 249 250 249 248 246 246
217 199 189 216 194 210 177 229 162 194 201 245 240 227 264 237 240 235 241 239 235 237 242 247 251 250 252 249 249 246 243 243 244 243 242 242 244 245 246 248 250 251 250 249
220 225 186 174 220 213 193 177 228 177 193 236 184 208 245 289 266 234 236 250 248 252 252 250 251 253 249 243 243 244 243 243 243 242 241 242 244 244 247 250 251 252 252 249
212 213 192 176 211 213 213 213 219 229 206 258 125 234 237 237 267 255 259 257 256 256 257 252 256 253 252 244 242 241 240 242 242 243 241 240 244 246 247 249 251 252 253 254
200 222 175 172 165 154 163 212 184 141 28 188 232 284 277 252 260 262 262 257 256 258 257 251 250 257 250 246 243 240 238 239 242 242 241 240 241 243 246 248 250 252 253 254
234 193 198 191 188 213 215 143 169 180 218 248 243 251 245 309 290 247 252 256 261 273 268 265 244 246 253 246 243 238 237 238 240 242 243 243 242 243 245 248 250 252 254 255
207 212 172 150 204 194 156 198 209 146 200 224 277 263 209 224 256 279 287 281 291 285 281 271 261 239 245 251 240 235 232 234 236 239 241 243 242 243 245 248 252 254 255 257
153 242 189 211 356 216 217 213 197 218 222 260 286 263 187 231 275 318 294 299 315 298 289 284 256 245 240 237 241 238 233 234 236 241 243 243 244 245 247 249 251 254 258 259
170 205 151 118 322 307 217 218 220 227 355 230 228 262 215 262 282 299 291 310 319 322 312 294 254 253 239 234 235 234 239 241 233 233 237 238 240 244 246 249 250 255 257 258
153 175 210 221 207 135 207 216 218 222 225 248 243 267 265 272 257 294 303 325 318 322 308 299 280 264 250 242 237 237 242 234 225 229 233 234 236 238 241 244 248 253 256 258
186 224 222 226 208 10 330 216 217 229 240 235 252 255 258 254 273 297 288 308 303 311 311 298 284 270 254 241 229 224 222 221 220 223 228 231 235 238 242 244 247 252 255 257
171 164 170 258 265 241 242 249 228 224 231 238 254 273 250 261 285 291 283 285 294 289 298 299 284 273 259 245 227 216 216 217 218 221 225 228 231 233 238 244 249 252 255 257
147 139 127 255 204 177 247 229 226 236 229 225 240 247 263 262 256 259 274 288 290 294 284 290 285 264 244 227 213 210 207 205 207 210 212 219 227 234 238 241 244 247 250 251
121 112 119 276 55 243 253 250 208 214 227 229 246 260 257 260 267 264 261 268 274 276 280 288 284 248 228 217 207 199 200 199 201 205 214 224 231 236 237 239 243 246 246 246
153 139 179 201 199 299 289 186 161 179 248 229 233 248 257 263 281 277 264 263 264 264 266 273 283 248 234 233 221 214 206 205 205 211 221 228 233 237 242 243 244 246 247 245
155 114 151 139 193 225 328 202 178 100 270 210 222 246 258 228 245 261 266 257 261 261 265 269 265 241 242 242 232 226 224 225 219 223 234 242 250 256 254 248 244 241 238 235
177 188 221 225 248 276 235 208 153 132 259 26 22 256 255 215 234 263 282 269 262 262 258 259 255 249 246 241 234 229 229 229 231 232 240 242 244 245 246 246 245 243 241 238
162 168 194 209 220 265 227 168 189 303 354 351 344 350 336 295 272 265 273 272 268 265 263 255 248 244 246 235 232 232 234 235 234 238 240 240 244 247 251 252 251 249 249 248
199 187 181 183 211 248 224 18 336 344 347 339 333 328 329 315 306 302 282 277 278 270 261 252 241 230 227 228 229 230 231 231 236 238 238 242 245 247 248 249 245 243 243 242
254 218 201 344 157 329 322 298 325 332 335 328 326 327 325 315 318 311 307 298 275 255 241 235 228 221 220 221 222 226 228 233 235 237 238 238 239 238 232 228 229 235 237 237
205 147 196 256 135 289 247 282 334 327 329 322 313 324 331 321 316 313 306 286 265 252 238 232 232 221 216 220 222 225 226 229 232 233 228 223 219 216 211 207 209 212 213 207
188 193 192 250 128 243 266 303 323 320 326 327 326 317 320 323 319 313 298 271 240 234 234 231 230 231 219 221 228 230 232 231 225 219 214 206 201 193 186 186 168 148 152 155